Regional Weather Roundup
Issued by NWS

Home | Current Version | Previous Version | Graphics & Text | Print | Product List | Glossary On
Versions: 1 2 3 4 5 6 7 8 9 10 11 12 13 14 15 16 17 18 19 20 21 22 23 24 25 26 27 28 29 30 31 32 33 34 35 36 37 38 39 40 41 42 43 44 45 46 47 48 49 50
000
ASUS45 KSLC 311010
RWRUT

UTAH REGIONAL WEATHER ROUNDUP
NATIONAL WEATHER SERVICE SALT LAKE CITY UT
400 AM MDT TUE MAY 31 2016

UTZ001>011-023>025-311100-

NORTHERN UTAH

CITY           SKY/WX    TMP DP  RH WIND       PRES   REMARKS
BRIGHAM CITY     N/A     49  37  64 NW3       30.06F
HILL AFB       CLEAR     51  39  63 E10       30.07S
LOGAN          CLEAR     43  39  86 NE3       30.09S
OGDEN          CLEAR     50  40  68 S5        30.06R
PROVO AIRPORT  CLEAR     50  36  57 SE6       30.07S
SALT LAKE CITY CLEAR     57  41  55 CALM      30.05S
VERNAL         CLEAR     49  35  58 W5        30.07R
WENDOVER       CLEAR     61  30  31 NW12      30.09S
HEBER CITY     CLEAR     36  32  87 CALM      30.11S
WEST JORDAN    CLEAR     52  34  50 CALM      30.07F

$$

UTZ012>022-026-027-311100-

SOUTHERN/CENTRAL UTAH

CITY           SKY/WX    TMP DP  RH WIND       PRES   REMARKS
BLANDING       CLEAR     50  26  38 N6        30.09S
BRYCE CANYON   CLEAR     35  28  75 N9        30.18S WCI  28
CEDAR CITY     CLEAR     50  33  52 CALM      30.07F
DELTA          CLEAR     50  32  50 N3        30.08R
HANKSVILLE     CLEAR     54  32  43 CALM      30.00S
MILFORD        CLEAR     47  29  49 NE6       30.06S
MOAB/CYNLANDS  CLEAR     59  30  33 CALM      29.96R
PRICE          CLEAR     48  23  37 N8        30.07S
ST GEORGE      SUNNY     63  28  27 S3        29.93R

$$

REGIONAL REPORTS     COLORADO/ARIZONA

CITY           SKY/WX    TMP DP  RH WIND       PRES   REMARKS
CRAIG, CO      CLOUDY    43  38  82 CALM      30.12S
GRAND JUNCTION CLEAR     54  35  48 SE3       30.02R
RIFLE          CLEAR     40  33  76 E5        30.10R
MONTROSE       CLOUDY    46  33  60 S8        30.09R
CORTEZ         CLEAR     39  30  70 NE7       30.03S WCI  34
PAGE, AZ       CLEAR     64  31  28 CALM      29.95R
GRAND CANYON   PTCLDY    35  24  64 NE5       30.10F WCI  31
KINGMAN        PTCLDY    64  27  24 W3        29.89F
FLAGSTAFF      PTCLDY    35  25  66 CALM      30.11S

$$

REGIONAL REPORTS    NEVADA/IDAHO/WYOMING

CITY           SKY/WX    TMP DP  RH WIND       PRES   REMARKS
LAS VEGAS, NV  PTCLDY    79  33  19 NW5       29.78R
ELY            CLEAR     52  31  44 N3        30.16S
ELKO           CLEAR     46  38  73 CALM      30.14S
POCATELLO, ID  CLEAR     45  29  53 S8        30.11S
BURLEY         CLEAR     47  31  53 CALM      30.09F
EVANSTON, WY   CLEAR     44  34  67 SE8       30.16F
ROCK SPRINGS   CLEAR     41  38  89 E7        30.17S

$$



USA.gov is the U.S. government's official web portal to all federal, state and local government web resources and services.